STARLINK-1371, 45542

Orbit data source: Space-Track

STARLINK-1371, 45542 is a payload satellite owned by SpaceX/Seattle (US) in LEO that was launched on Wed, 22 Apr 2020 UTC via an FALCON 9 launch vehicle from the Air Force Eastern Test Range (AFETR). Payloads include a variety of satellites, spacecraft, and rockets equipped with specific instruments for various scientific and technological missions. These include communications satellites like Starlink; space stations such as the ISS; scientific satellites like the Hubble; Earth observation satellites from companies like Planet Labs, Umbra, and HawkEye 360; GPS; miniature CubeSats for education and research; and military/defense satellites.

Loading next visibility...
STARLINK-1371 details
Identifier
45542, 2020-025M
Orbit
LEO
Last TLE update10 hours ago
Origin
Flag of USSpaceX/Seattle (US)
ManufacturerSpaceX/Seattle
MissionOperational Commercial Communications
Bus & MotorSTARLINK, Unknown motor
Mass260 kg wet, ~248 kg dry
Launch date (UTC)
2020-04-22 (5 years ago)
Launch vehicle
FALCON 9
Launch site
Air Force Eastern Test Range (AFETR)
Object type
Payload
Rocket body
Debris
Shape & HBRBox + 1 Pan, 8.86 m
Radar Cross Section13.562 m², Large (>1 m²)

Expand to show TLE details & history

TLE from 10 hours ago
0 STARLINK-1371
1 45542U 20025M   24347.95255832  .00002931  00000-0  21563-3 0  9993
2 45542  53.0541 334.5443 0001450  94.3817 265.7338 15.06390842257004
Epoch: 2024-12-12T22:51Z
Definitive object data (Epoch: 2024-12-12T22:51:41.038Z)
Latitude-0.00001°
Longitude-90.50221°
Altitude548.194 km
Speed7.589 km/s
True Right ascension22h 18m 10s
True Declination0° 00' 00"
Sunlit
Object was in daylight at TLE epoch
Visualization TLE readout
Latitude34.33304°
Longitude56.87784°
Altitude548.902 km
Speed7.592 km/s
Apparent Right ascension10h 54m 08s
Apparent Declination-8° 47' 01"
Sunlit
Object is in full shadow
Visualization observer readout
Local Sidereal Time07:30:29
Azimuth123.974° SE
Elevation22.327°
Doppler factor1
Orbital elements
Apogee altitude548.515 km
Perigee altitude546.506 km
Semi-major axis6,925.647 km
Eccentricity0.000145
Inclination53.0541°
RAAN334.5443°
Arg. of periapsis94.3817°
True anomaly265.71723°
Mean anomaly265.7338°
Eccentric anomaly265.72552°
Mean motion3.76576 °/min
BSTAR0.00021563
Orbital period95.6 mins
Loading maneuver chart data...
Loading historical data...
Loading historical data...
Loading historical data...
Loading historical data...
Loading historical data...
Loading historical data...
Loading historical data...

STARLINK-1371 Visibility forecast

Observer location: undefined°, undefined

Span
Click to sort rows by Start time (UTC) header in descending order
Start Az.
Max El. time (UTC)
Max El. Az.
Max El.
End time (UTC)
End Az.
6 mins2024-12-14 02:07:47.319Z237.683° WSW2024-12-14 02:10:47.319Z15.095° NNE42.612°2024-12-14 02:13:47.319Z46.717° ENE
4 mins2024-12-14 03:48:47.319Z309.789° NW2024-12-14 03:50:47.319Z347.364° N18.215°2024-12-14 03:52:47.319Z20.457° NNE
5 mins2024-12-14 07:09:47.319Z341.134° N2024-12-14 07:11:47.319Z18.059° NNE21.145°2024-12-14 07:14:47.319Z71.991° E
6 mins2024-12-14 08:49:47.319Z303.992° NW2024-12-14 08:51:47.319Z245.965° WSW44.163°2024-12-14 08:55:47.319Z136.359° SSE
|